This demonstration page uses our WeatherBlox Daily Observations layout. Learn more.

Left ArrowRight Arrow

30.21309, -93.2044

Hourly Observations for June 3, 2019

Temp ( °F °C ) Dew Point ( °F °C ) Humidity (%) Winds ( mph kmh ) Pressure ( in mb ) Visibility ( mi km ) Precip ( " mm )
12:15 am 00:15 Clear 73 22.7 72 22.1 96 96 N 6 9 29.94 1014 10 16 0.00 0.00
12:35 am 00:35 Clear 73 22.7 72 22 96 96 NNE 10 17 29.94 1014 10 16 0.00 0.00
12:55 am 00:55 Clear 73 22.8 71 21.8 94 94 NNW 5 7 29.95 1014 10 16 0.00 0.00
1:15 am 01:15 Clear 73 22.6 71 21.7 95 95 NNE 10 17 29.95 1014 10 16 0.00 0.00
1:35 am 01:35 Clear 73 22.5 71 21.5 94 94 N 8 13 29.95 1014 10 16 0.00 0.00
1:55 am 01:55 Clear 73 22.5 71 21.5 94 94 N 6 9 29.94 1014 10 16 0.00 0.00
2:15 am 02:15 Clear 73 22.7 71 21.6 94 94 Calm 29.94 1014 10 16 0.00 0.00
2:35 am 02:35 Clear 73 22.7 71 21.5 93 93 Calm 29.93 1014 10 16 0.00 0.00
2:55 am 02:55 Clear 73 23 71 21.6 92 92 N 7 11 29.93 1014 10 16 0.00 0.00
3:15 am 03:15 Clear 72 22.2 71 21.5 96 96 Calm 29.93 1014 10 16 0.00 0.00
3:35 am 03:35 Clear 72 22.1 71 21.4 96 96 Calm 29.93 1014 10 16 0.00 0.00
3:55 am 03:55 Clear 72 22.2 71 21.5 96 96 NNE 12 19 29.94 1014 10 16 0.00 0.00
4:15 am 04:15 Clear 72 22 71 21.5 97 97 NNE 9 15 29.94 1014 10 16 0.00 0.00
4:35 am 04:35 Clear 72 22 70 21.3 96 96 NNE 10 17 29.95 1014 10 16 0.00 0.00
4:55 am 04:55 Clear 72 22.1 70 21.3 95 95 NNE 12 19 29.95 1014 10 16 0.00 0.00
5:15 am 05:15 Clear 72 22.1 70 21.3 95 95 NNE 12 19 29.96 1015 10 16 0.00 0.00
5:35 am 05:35 Clear 72 22 70 21 94 94 NNE 8 13 29.96 1015 10 16 0.00 0.00
6:00 am 06:00 Mostly Clear 72 22 70 21 94 94 Calm 29.96 1015 10 16 0.00 0.00
6:55 am 06:55 Mostly Sunny 72 22 70 21 94 94 Calm 29.97 1015 10 16 0.00 0.00
7:50 am 07:50 Mostly Sunny 75 24 72 22 89 89 Calm 29.99 1016 10 16 0.00 0.00
8:45 am 08:45 Mostly Sunny 81 27 73 23 79 79 E 3 6 30.01 1016 10 16 0.00 0.00
9:45 am 09:45 Mostly Sunny 84 29 73 23 70 70 Calm 30.02 1017 10 16 0.00 0.00
10:45 am 10:45 Mostly Sunny 86 30 72 22 62 62 VRB 6 9 30.01 1016 10 16 0.00 0.00
11:45 am 11:45 Mostly Sunny 86 30 73 23 66 66 ENE 3 6 30.01 1016 10 16 0.00 0.00
12:55 pm 12:55 Partly Cloudy 90 32 73 23 59 59 E 3 6 29.99 1016 10 16 0.00 0.00
1:50 pm 13:50 Mostly Cloudy 91 33 72 22 52 52 Calm 29.97 1015 10 16 0.00 0.00
2:55 pm 14:55 Mostly Cloudy 90 32 72 22 55 55 SE 6 9 29.96 1015 10 16 0.00 0.00
3:50 pm 15:50 Mostly Cloudy 91 33 72 22 52 52 ESE 3 6 29.94 1014 10 16 0.00 0.00
4:50 pm 16:50 Partly Cloudy 93 34 72 22 49 49 S 5 7 29.92 1013 10 16 0.00 0.00
5:50 pm 17:50 Partly Cloudy 91 33 72 22 52 52 SSE 5 7 29.91 1013 10 16 0.00 0.00
6:50 pm 18:50 Mostly Sunny 90 32 73 23 59 59 SSW 7 11 29.92 1013 10 16 0.00 0.00
7:55 pm 19:55 Partly Cloudy 88 31 73 23 62 62 S 6 9 29.93 1014 10 16 0.00 0.00
8:50 pm 20:50 Partly Cloudy 86 30 73 23 66 66 S 6 9 29.94 1014 10 16 0.00 0.00
9:50 pm 21:50 Partly Cloudy 81 27 75 24 84 84 SSE 6 9 29.96 1015 10 16 0.00 0.00
10:15 pm 22:15 Partly Cloudy 81 27.4 75 24.1 82 82 SSW 3 6 29.97 1015 10 16 0.00 0.00
10:35 pm 22:35 Partly Cloudy 83 28.5 75 24 77 77 SW 3 6 29.97 1015 10 16 0.00 0.00
10:55 pm 22:55 Partly Cloudy 83 28.2 75 24 78 78 SSW 3 6 29.98 1015 10 16 0.00 0.00
11:15 pm 23:15 Partly Cloudy 83 28.2 75 23.9 78 78 SSW 3 6 29.98 1015 10 16 0.00 0.00
11:35 pm 23:35 Partly Cloudy 80 26.5 76 24.6 89 89 E 8 13 29.99 1016 10 16 0.00 0.00
11:55 pm 23:55 Partly Cloudy 80 26.6 76 24.4 88 88 E 8 13 29.99 1016 10 16 0.00 0.00

Powered by AerisWeather